Regional Weather Roundup
Issued by NWS

Home | Current Version | Previous Version | Text Only | Print | Product List | Glossary Off
Versions: 1 2 3 4 5 6 7 8 9 10 11 12 13 14 15 16 17 18 19 20 21 22 23 24 25 26 27 28 29 30 31 32 33 34 35 36 37 38 39 40 41 42 43 44 45 46 47 48 49 50

000
ASUS43 KBIS 160920
RWRND

NORTH DAKOTA REGIONAL WEATHER ROUNDUP
NATIONAL WEATHER SERVICE BISMARCK ND
400 AM CDT TUE SEP 16 2014

NOTE: "FAIR" INDICATES FEW OR NO CLOUDS BELOW 12,000 FEET WITH NO
SIGNIFICANT WEATHER AND/OR OBSTRUCTIONS TO VISIBILITY.


NDZ001>003-009>011-017-161000-
NORTHWEST NORTH DAKOTA

CITY           SKY/WX    TMP DP  RH WIND       PRES   REMARKS
WILLISTON      CLEAR     36  32  85 CALM      30.03F
MINOT          CLEAR     49  39  68 SW10      30.03F
MINOT AFB      CLEAR     45  40  83 SW7       30.02F
$$

NDZ018>021-031>035-040>046-161000-
SOUTHWEST NORTH DAKOTA

CITY           SKY/WX    TMP DP  RH WIND       PRES   REMARKS
BISMARCK       CLEAR     46  37  71 CALM      30.09F
DICKINSON      CLEAR     42  37  82 S10       30.04F
GARRISON         N/A     45  41  86 SE3       30.06F
HETTINGER ARPT CLEAR     39  36  89 CALM      30.06F
$$

NDZ004>008-012>016-024-026-027-054-161000-
NORTHEAST NORTH DAKOTA

CITY           SKY/WX    TMP DP  RH WIND       PRES   REMARKS
GRAND FORKS    CLEAR     48  39  71 SW7       30.05S
GRND FRKS AFB  FAIR      51  39  65 SW9       30.05S
DEVILS LAKE    CLEAR     52  39  62 SW12      30.04S
$$

NDZ022-023-025-028>030-036>039-047>053-161000-
SOUTHEAST NORTH DAKOTA

CITY           SKY/WX    TMP DP  RH WIND       PRES   REMARKS
FARGO          CLEAR     46  38  73 SW9       30.11F
JAMESTOWN      CLEAR     43  37  79 S7        30.09F
$$




USA.gov is the U.S. government's official web portal to all federal, state and local government web resources and services.